TimeMST,TemperatureF,Dew PointF,Humidity,Sea Level PressureIn,VisibilityMPH,Wind Direction,Wind SpeedMPH,Gust SpeedMPH,PrecipitationIn,Events,Conditions,WindDirDegrees,DateUTC
12:15 AM,26.6,19.6,75,30.08,10.0,NE,20.7,26.5,N/A,,Overcast,40,2014-01-23 07:15:00
12:35 AM,26.6,19.4,74,30.08,10.0,NE,13.8,-,N/A,,Overcast,40,2014-01-23 07:35:00
12:55 AM,24.8,17.6,74,30.09,10.0,NNE,28.8,33.4,N/A,,Scattered Clouds,30,2014-01-23 07:55:00
1:15 AM,25.2,17.6,73,30.10,10.0,NNE,21.9,32.2,N/A,,Clear,30,2014-01-23 08:15:00
1:35 AM,25.2,16.7,70,30.11,10.0,NE,25.3,31.1,N/A,,Clear,40,2014-01-23 08:35:00
1:55 AM,24.4,16.0,70,30.12,10.0,NE,20.7,-,N/A,,Clear,40,2014-01-23 08:55:00
2:15 AM,24.6,15.4,68,30.15,10.0,NE,17.3,26.5,N/A,,Clear,40,2014-01-23 09:15:00
2:35 AM,23.5,14.4,68,30.16,10.0,North,12.7,-,N/A,,Scattered Clouds,10,2014-01-23 09:35:00
2:55 AM,22.5,13.6,69,30.16,10.0,NNE,15.0,-,N/A,,Clear,30,2014-01-23 09:55:00
3:15 AM,21.4,13.1,70,30.18,10.0,NE,12.7,-,N/A,,Clear,40,2014-01-23 10:15:00
3:35 AM,18.9,11.5,73,30.19,10.0,NNE,8.1,-,N/A,,Clear,20,2014-01-23 10:35:00
3:55 AM,18.0,10.6,73,30.20,10.0,NE,8.1,-,N/A,,Clear,40,2014-01-23 10:55:00
4:15 AM,16.5,9.3,73,30.21,10.0,NE,8.1,-,N/A,,Clear,50,2014-01-23 11:15:00
4:35 AM,16.3,9.3,74,30.22,10.0,NNE,10.4,-,N/A,,Clear,30,2014-01-23 11:35:00
4:55 AM,14.2,7.7,75,30.24,10.0,NE,6.9,-,N/A,,Clear,50,2014-01-23 11:55:00
5:15 AM,14.4,6.1,70,30.25,10.0,Calm,Calm,-,N/A,,Clear,0,2014-01-23 12:15:00
5:35 AM,16.2,5.0,62,30.25,10.0,NE,4.6,-,N/A,,Clear,40,2014-01-23 12:35:00
5:55 AM,13.5,4.3,67,30.27,10.0,NNE,4.6,-,N/A,,Clear,30,2014-01-23 12:55:00
6:15 AM,13.8,5.0,68,30.28,10.0,NNE,16.1,-,N/A,,Clear,30,2014-01-23 13:15:00
6:35 AM,15.8,5.9,65,30.30,10.0,NE,18.4,-,N/A,,Clear,40,2014-01-23 13:35:00
6:55 AM,14.0,5.0,67,30.32,10.0,NE,18.4,-,N/A,,Clear,50,2014-01-23 13:55:00
7:15 AM,14.5,5.2,66,30.32,10.0,NNE,24.2,-,N/A,,Clear,30,2014-01-23 14:15:00
7:35 AM,13.6,5.0,68,30.33,10.0,NNE,20.7,-,N/A,,Clear,30,2014-01-23 14:35:00
7:55 AM,13.6,4.6,67,30.36,10.0,North,8.1,-,N/A,,Clear,10,2014-01-23 14:55:00
8:15 AM,14.0,4.8,67,30.37,10.0,North,4.6,-,N/A,,Clear,360,2014-01-23 15:15:00
8:35 AM,15.4,5.0,63,30.38,10.0,South,3.5,17.3,N/A,,Clear,190,2014-01-23 15:35:00
8:55 AM,16.7,4.6,59,30.39,10.0,WSW,4.6,-,N/A,,Clear,250,2014-01-23 15:55:00
9:15 AM,19.4,3.6,50,30.40,10.0,SW,6.9,-,N/A,,Clear,230,2014-01-23 16:15:00
9:35 AM,21.0,3.6,47,30.41,10.0,NNE,5.8,-,N/A,,Clear,30,2014-01-23 16:35:00
9:55 AM,21.2,6.1,52,30.41,10.0,NNE,12.7,-,N/A,,Clear,30,2014-01-23 16:55:00
10:15 AM,21.9,6.6,52,30.42,10.0,NE,10.4,-,N/A,,Clear,40,2014-01-23 17:15:00
10:35 AM,23.2,7.0,50,30.42,10.0,NE,5.8,-,N/A,,Clear,40,2014-01-23 17:35:00
10:55 AM,25.2,3.2,39,30.42,10.0,Calm,Calm,-,N/A,,Clear,0,2014-01-23 17:55:00
11:15 AM,27.5,2.3,34,30.42,10.0,Calm,Calm,-,N/A,,Clear,0,2014-01-23 18:15:00
11:35 AM,26.4,5.4,41,30.42,10.0,North,6.9,-,N/A,,Clear,350,2014-01-23 18:35:00
11:55 AM,26.6,5.5,41,30.42,10.0,North,3.5,-,N/A,,Clear,360,2014-01-23 18:55:00
12:15 PM,27.0,8.4,46,30.41,10.0,NW,5.8,-,N/A,,Clear,320,2014-01-23 19:15:00
12:35 PM,27.7,6.4,41,30.41,10.0,NNW,6.9,-,N/A,,Clear,330,2014-01-23 19:35:00
12:55 PM,28.0,5.7,39,30.41,10.0,NNW,5.8,-,N/A,,Clear,340,2014-01-23 19:55:00
1:15 PM,28.2,4.8,37,30.40,10.0,NW,6.9,-,N/A,,Clear,320,2014-01-23 20:15:00
1:35 PM,28.6,4.5,36,30.40,10.0,NNW,5.8,-,N/A,,Clear,330,2014-01-23 20:35:00
1:55 PM,28.6,2.3,33,30.39,10.0,NNW,5.8,-,N/A,,Clear,330,2014-01-23 20:55:00
2:15 PM,28.4,2.1,33,30.39,10.0,NNW,8.1,-,N/A,,Clear,340,2014-01-23 21:15:00
2:35 PM,28.6,-0.4,29,30.40,10.0,North,9.2,-,N/A,,Clear,350,2014-01-23 21:35:00
2:55 PM,28.4,0.9,31,30.40,10.0,NNW,9.2,-,N/A,,Clear,340,2014-01-23 21:55:00
3:15 PM,27.9,3.7,36,30.40,10.0,NNW,9.2,-,N/A,,Clear,340,2014-01-23 22:15:00
3:35 PM,27.0,3.2,36,30.40,10.0,North,5.8,-,N/A,,Clear,350,2014-01-23 22:35:00
3:55 PM,25.2,6.4,45,30.40,10.0,North,5.8,-,N/A,,Clear,350,2014-01-23 22:55:00
4:15 PM,23.9,5.2,45,30.40,10.0,NNW,5.8,-,N/A,,Clear,330,2014-01-23 23:15:00
4:35 PM,20.8,5.9,53,30.41,10.0,NW,6.9,-,N/A,,Clear,320,2014-01-23 23:35:00
4:55 PM,19.4,6.1,56,30.41,10.0,North,3.5,-,N/A,,Clear,350,2014-01-23 23:55:00
5:15 PM,17.4,5.4,59,30.41,10.0,North,4.6,-,N/A,,Clear,360,2014-01-24 00:15:00
5:35 PM,16.0,4.5,60,30.42,10.0,NNE,3.5,-,N/A,,Clear,20,2014-01-24 00:35:00
5:55 PM,14.9,3.9,62,30.42,10.0,Calm,Calm,-,N/A,,Clear,0,2014-01-24 00:55:00
6:15 PM,10.9,2.1,68,30.42,10.0,North,4.6,-,N/A,,Clear,360,2014-01-24 01:15:00
6:35 PM,7.3,-1.5,67,30.43,10.0,NE,6.9,-,N/A,,Clear,50,2014-01-24 01:35:00
6:55 PM,7.3,-0.8,69,30.45,10.0,Calm,Calm,-,N/A,,Clear,0,2014-01-24 01:55:00
7:15 PM,8.6,-2.2,62,30.45,10.0,ENE,4.6,-,N/A,,Clear,70,2014-01-24 02:15:00
7:35 PM,7.0,-3.6,62,30.45,10.0,ENE,3.5,-,N/A,,Clear,60,2014-01-24 02:35:00
7:55 PM,4.3,-4.0,69,30.45,10.0,Calm,Calm,-,N/A,,Clear,0,2014-01-24 02:55:00
8:15 PM,5.0,-4.4,65,30.46,10.0,Calm,Calm,-,N/A,,Clear,0,2014-01-24 03:15:00
8:35 PM,5.5,-3.8,65,30.47,10.0,Calm,Calm,-,N/A,,Clear,0,2014-01-24 03:35:00
8:55 PM,7.2,-1.5,68,30.48,10.0,Calm,Calm,-,N/A,,Clear,0,2014-01-24 03:55:00
9:15 PM,1.2,-6.2,71,30.49,10.0,Calm,Calm,-,N/A,,Clear,0,2014-01-24 04:15:00
9:35 PM,1.2,-6.9,69,30.49,10.0,ENE,4.6,-,N/A,,Clear,60,2014-01-24 04:35:00
9:55 PM,0.7,-6.3,72,30.50,10.0,Calm,Calm,-,N/A,,Clear,0,2014-01-24 04:55:00
10:15 PM,2.8,-5.3,69,30.48,10.0,ENE,5.8,-,N/A,,Clear,70,2014-01-24 05:15:00
10:35 PM,3.2,-4.5,70,30.50,10.0,Calm,Calm,-,N/A,,Clear,0,2014-01-24 05:35:00
10:55 PM,3.9,-4.5,68,30.49,10.0,Calm,Calm,-,N/A,,Clear,0,2014-01-24 05:55:00
11:15 PM,3.0,-4.4,71,30.50,10.0,SE,4.6,-,N/A,,Clear,130,2014-01-24 06:15:00
11:35 PM,4.3,-4.4,67,30.48,10.0,East,10.4,-,N/A,,Clear,90,2014-01-24 06:35:00
11:55 PM,7.0,-4.0,61,30.50,10.0,East,5.8,-,N/A,,Clear,80,2014-01-24 06:55:00